TimeCST,TemperatureF,Dew PointF,Humidity,Sea Level PressureIn,VisibilityMPH,Wind Direction,Wind SpeedMPH,Gust SpeedMPH,PrecipitationIn,Events,Conditions,WindDirDegrees,DateUTC
12:15 AM,66.2,62.6,88,29.83,7.0,Calm,Calm,-,N/A,Thunderstorm,Mostly Cloudy,0,2012-12-09 06:15:00
12:35 AM,64.4,62.6,94,29.82,7.0,West,3.5,-,N/A,,Mostly Cloudy,260,2012-12-09 06:35:00
1:15 AM,62.6,62.6,100,29.81,5.0,Calm,Calm,-,N/A,Thunderstorm,Mostly Cloudy,0,2012-12-09 07:15:00
1:35 AM,62.6,62.6,100,29.80,4.0,Calm,Calm,-,N/A,Thunderstorm,Overcast,0,2012-12-09 07:35:00
1:55 AM,64.4,64.4,100,29.79,2.0,SW,8.1,-,0.08,Rain-Thunderstorm,Heavy Thunderstorms and Rain,220,2012-12-09 07:55:00
2:15 AM,64.4,64.4,100,29.80,5.0,WSW,6.9,-,0.15,Rain-Thunderstorm,Heavy Thunderstorms and Rain,240,2012-12-09 08:15:00
2:35 AM,64.4,62.6,94,29.79,7.0,WSW,6.9,-,0.29,Rain-Thunderstorm,Light Thunderstorms and Rain,250,2012-12-09 08:35:00
2:55 AM,66.2,64.4,94,29.80,10.0,SW,4.6,-,0.38,Thunderstorm,Mostly Cloudy,230,2012-12-09 08:55:00
3:15 AM,68.0,66.2,94,29.80,7.0,WSW,6.9,-,0.06,,Overcast,240,2012-12-09 09:15:00
3:35 AM,64.4,64.4,100,29.80,7.0,Calm,Calm,-,0.12,,Overcast,0,2012-12-09 09:35:00
3:55 AM,68.0,68.0,100,29.80,5.0,SW,6.9,-,0.12,,Overcast,220,2012-12-09 09:55:00
4:15 AM,68.0,68.0,100,29.80,5.0,SW,5.8,-,N/A,,Overcast,220,2012-12-09 10:15:00
4:35 AM,68.0,68.0,100,29.79,5.0,South,4.6,-,N/A,,Overcast,190,2012-12-09 10:35:00
4:55 AM,68.0,68.0,100,29.80,5.0,SW,6.9,-,N/A,,Overcast,230,2012-12-09 10:55:00
5:15 AM,68.0,68.0,100,29.80,4.0,SSW,6.9,-,N/A,,Overcast,210,2012-12-09 11:15:00
5:35 AM,68.0,68.0,100,29.80,3.0,SW,6.9,-,N/A,Rain,Rain,230,2012-12-09 11:35:00
5:55 AM,68.0,68.0,100,29.80,3.0,SW,9.2,-,N/A,,Light Drizzle,220,2012-12-09 11:55:00
6:35 AM,68.0,68.0,100,29.81,3.0,SW,5.8,-,N/A,,Light Drizzle,220,2012-12-09 12:35:00
6:55 AM,68.0,68.0,100,29.81,3.0,SW,6.9,20.7,N/A,,Overcast,220,2012-12-09 12:55:00
7:15 AM,68.0,68.0,100,29.81,2.5,SSW,5.8,-,N/A,Rain,Light Rain,210,2012-12-09 13:15:00
7:35 AM,68.0,68.0,100,29.81,3.0,SSW,8.1,-,N/A,,Light Drizzle,200,2012-12-09 13:35:00
7:55 AM,68.0,68.0,100,29.81,3.0,SW,9.2,-,N/A,Rain,Light Rain,220,2012-12-09 13:55:00
8:15 AM,68.0,68.0,100,29.81,4.0,SW,6.9,-,N/A,,Overcast,220,2012-12-09 14:15:00
8:35 AM,68.0,68.0,100,29.81,5.0,SW,8.1,-,N/A,Rain,Light Rain,220,2012-12-09 14:35:00
8:55 AM,68.0,68.0,100,29.81,5.0,SW,5.8,-,0.02,Rain,Light Rain,220,2012-12-09 14:55:00
9:15 AM,69.8,68.0,94,29.81,5.0,SW,8.1,-,N/A,,Overcast,220,2012-12-09 15:15:00
9:35 AM,69.8,68.0,94,29.82,5.0,SW,8.1,-,N/A,,Overcast,230,2012-12-09 15:35:00
9:55 AM,71.6,68.0,88,29.82,7.0,SSW,8.1,-,N/A,,Overcast,210,2012-12-09 15:55:00
10:15 AM,71.6,68.0,88,29.82,7.0,SSW,8.1,-,N/A,,Overcast,200,2012-12-09 16:15:00
10:35 AM,71.6,64.4,78,29.81,7.0,SSW,8.1,19.6,N/A,,Mostly Cloudy,210,2012-12-09 16:35:00
10:55 AM,71.6,62.6,73,29.81,7.0,SSW,9.2,-,N/A,,Mostly Cloudy,210,2012-12-09 16:55:00
11:15 AM,73.4,62.6,69,29.80,7.0,SSW,6.9,-,N/A,,Mostly Cloudy,210,2012-12-09 17:15:00
11:35 AM,73.4,62.6,69,29.79,7.0,SW,11.5,18.4,N/A,,Mostly Cloudy,220,2012-12-09 17:35:00
11:55 AM,73.4,62.6,69,29.79,7.0,West,12.7,18.4,N/A,,Mostly Cloudy,260,2012-12-09 17:55:00
12:15 PM,71.6,60.8,69,29.78,10.0,WSW,9.2,17.3,N/A,,Overcast,250,2012-12-09 18:15:00
12:35 PM,73.4,60.8,65,29.77,10.0,WSW,6.9,17.3,N/A,,Scattered Clouds,240,2012-12-09 18:35:00
12:55 PM,75.2,57.2,53,29.76,10.0,WSW,10.4,18.4,N/A,,Clear,240,2012-12-09 18:55:00
1:15 PM,73.4,55.4,53,29.75,10.0,SW,10.4,19.6,N/A,,Clear,230,2012-12-09 19:15:00
1:35 PM,73.4,55.4,53,29.76,10.0,SW,10.4,18.4,N/A,,Clear,230,2012-12-09 19:35:00
1:55 PM,75.2,57.2,53,29.75,10.0,WSW,11.5,-,N/A,,Clear,240,2012-12-09 19:55:00
2:15 PM,75.2,59.0,57,29.76,10.0,West,9.2,18.4,N/A,,Mostly Cloudy,270,2012-12-09 20:15:00
2:35 PM,73.4,59.0,61,29.76,10.0,West,8.1,-,N/A,,Mostly Cloudy,260,2012-12-09 20:35:00
3:15 PM,68.0,55.4,64,29.78,10.0,WNW,13.8,-,N/A,,Mostly Cloudy,290,2012-12-09 21:15:00
3:35 PM,68.0,53.6,60,29.80,7.0,WNW,15.0,-,N/A,,Scattered Clouds,300,2012-12-09 21:35:00
4:15 PM,62.6,51.8,68,29.82,7.0,West,15.0,19.6,N/A,,Clear,280,2012-12-09 22:15:00
4:35 PM,60.8,51.8,72,29.82,5.0,West,12.7,17.3,N/A,,Haze,280,2012-12-09 22:35:00
4:55 PM,60.8,50.0,68,29.83,7.0,West,9.2,-,N/A,,Scattered Clouds,280,2012-12-09 22:55:00
5:15 PM,59.0,50.0,72,29.83,7.0,Calm,Calm,-,N/A,,Overcast,0,2012-12-09 23:15:00
5:35 PM,59.0,48.2,67,29.84,7.0,WNW,10.4,-,N/A,,Overcast,300,2012-12-09 23:35:00
5:55 PM,57.2,48.2,72,29.85,7.0,NNW,3.5,-,N/A,,Overcast,330,2012-12-09 23:55:00
6:15 PM,55.4,46.4,72,29.86,7.0,North,3.5,-,N/A,,Overcast,360,2012-12-10 00:15:00
6:35 PM,55.4,46.4,72,29.86,10.0,NNW,6.9,-,N/A,,Overcast,330,2012-12-10 00:35:00
6:55 PM,53.6,44.6,72,29.87,7.0,North,10.4,16.1,N/A,,Overcast,350,2012-12-10 00:55:00
7:15 PM,51.8,44.6,76,29.88,7.0,North,12.7,17.3,N/A,,Scattered Clouds,350,2012-12-10 01:15:00
7:35 PM,51.8,44.6,76,29.88,10.0,NNW,10.4,23.0,N/A,,Clear,330,2012-12-10 01:35:00
7:55 PM,51.8,42.8,71,29.88,10.0,NNW,9.2,17.3,N/A,,Clear,340,2012-12-10 01:55:00
8:15 PM,51.8,42.8,71,29.89,10.0,NNW,8.1,16.1,N/A,,Clear,340,2012-12-10 02:15:00
8:35 PM,51.8,42.8,71,29.89,10.0,NNW,5.8,-,N/A,,Clear,340,2012-12-10 02:35:00
8:55 PM,51.8,42.8,71,29.90,10.0,NNW,5.8,-,N/A,,Mostly Cloudy,340,2012-12-10 02:55:00
9:15 PM,51.8,42.8,71,29.90,10.0,NNW,8.1,-,N/A,,Overcast,330,2012-12-10 03:15:00
9:35 PM,51.8,42.8,71,29.90,10.0,North,4.6,-,N/A,,Overcast,350,2012-12-10 03:35:00
9:55 PM,50.0,41.0,71,29.90,10.0,North,6.9,-,N/A,,Scattered Clouds,350,2012-12-10 03:55:00
10:15 PM,50.0,41.0,71,29.91,10.0,North,6.9,-,N/A,,Scattered Clouds,360,2012-12-10 04:15:00
10:35 PM,50.0,41.0,71,29.91,10.0,NNW,8.1,-,N/A,,Mostly Cloudy,340,2012-12-10 04:35:00
11:15 PM,48.2,35.6,62,29.92,10.0,NNW,9.2,17.3,N/A,,Mostly Cloudy,330,2012-12-10 05:15:00
11:35 PM,46.4,33.8,62,29.93,10.0,NW,13.8,18.4,N/A,,Mostly Cloudy,320,2012-12-10 05:35:00
11:55 PM,46.4,32.0,57,29.94,10.0,NW,10.4,17.3,N/A,,Overcast,310,2012-12-10 05:55:00